Stündliche Wetter Bolshie Duravki

Heute, 21 April, Mittwoch

Zeit Temperatur Niederschläge Wind Luftdruck Luftfeuchtigkeit
00:00 +2°C° 0 mm 3 m/S 738 mmHg 88%
01:00 +3°C° 0 mm 2 m/S 738 mmHg 89%
02:00 +3°C° 0 mm 2 m/S 737 mmHg 89%
03:00 +3°C° 0 mm 2 m/S 737 mmHg 88%
04:00 +3°C° 0 mm 2 m/S 737 mmHg 87%
05:00 +3°C° 0 mm 2 m/S 736 mmHg 86%
06:00 +4°C° 0 mm 2 m/S 737 mmHg 83%
07:00 +4°C° 0 mm 2 m/S 737 mmHg 79%
08:00 +4°C° 0 mm 3 m/S 737 mmHg 76%
09:00 +5°C° 0 mm 3 m/S 737 mmHg 70%
10:00 +7°C° 0 mm 3 m/S 736 mmHg 64%
11:00 +8°C° 0 mm 3 m/S 736 mmHg 59%
12:00 +8°C° 0 mm 3 m/S 737 mmHg 61%
13:00 +7°C° 0 mm 4 m/S 737 mmHg 64%
14:00 +7°C° 0 mm 4 m/S 737 mmHg 66%
15:00 +7°C° 0.1 mm 4 m/S 737 mmHg 66%
16:00 +8°C° 0.1 mm 3 m/S 737 mmHg 65%
17:00 +9°C° 0.1 mm 3 m/S 737 mmHg 65%
18:00 +8°C° 0 mm 3 m/S 737 mmHg 69%
19:00 +7°C° 0 mm 3 m/S 738 mmHg 73%
20:00 +6°C° 0 mm 2 m/S 738 mmHg 78%
21:00 +5°C° 0 mm 2 m/S 738 mmHg 79%
22:00 +4°C° 0 mm 3 m/S 738 mmHg 80%
23:00 +3°C° 0 mm 3 m/S 738 mmHg 81%

Morgen, 22 April, Donnerstag

Zeit Temperatur Niederschläge Wind Luftdruck Luftfeuchtigkeit
00:00 +4°C° 0 mm 3 m/S 738 mmHg 80%
01:00 +4°C° 0 mm 3 m/S 738 mmHg 79%
02:00 +4°C° 0 mm 3 m/S 739 mmHg 78%
03:00 +4°C° 0 mm 3 m/S 739 mmHg 82%
04:00 +4°C° 0 mm 3 m/S 739 mmHg 85%
05:00 +4°C° 0 mm 3 m/S 739 mmHg 89%
06:00 +5°C° 0 mm 4 m/S 739 mmHg 86%
07:00 +6°C° 0 mm 4 m/S 739 mmHg 83%
08:00 +8°C° 0 mm 5 m/S 739 mmHg 80%
09:00 +9°C° 0.2 mm 5 m/S 739 mmHg 74%
10:00 +10°C° 0.2 mm 6 m/S 739 mmHg 67%
11:00 +13°C° 0.2 mm 6 m/S 739 mmHg 61%
12:00 +13°C° 0.5 mm 6 m/S 739 mmHg 61%
13:00 +13°C° 0.5 mm 6 m/S 738 mmHg 61%
14:00 +14°C° 0.5 mm 6 m/S 738 mmHg 60%
15:00 +14°C° 0.3 mm 6 m/S 738 mmHg 59%
16:00 +14°C° 0.3 mm 5 m/S 738 mmHg 58%
17:00 +14°C° 0.3 mm 5 m/S 738 mmHg 57%
18:00 +12°C° 0 mm 4 m/S 738 mmHg 64%
19:00 +10°C° 0 mm 3 m/S 738 mmHg 71%
20:00 +9°C° 0 mm 3 m/S 739 mmHg 77%
21:00 +9°C° 0.8 mm 3 m/S 738 mmHg 82%
22:00 +8°C° 0.8 mm 3 m/S 738 mmHg 87%
23:00 +7°C° 0.8 mm 4 m/S 738 mmHg 92%

übermorgen, 23 April, Freitag

Zeit Temperatur Niederschläge Wind Luftdruck Luftfeuchtigkeit
00:00 +7°C° 0.3 mm 4 m/S 738 mmHg 92%
01:00 +6°C° 0.3 mm 4 m/S 738 mmHg 91%
02:00 +6°C° 0.3 mm 4 m/S 738 mmHg 91%
03:00 +5°C° 0.4 mm 4 m/S 739 mmHg 90%
04:00 +4°C° 0.4 mm 3 m/S 739 mmHg 89%
05:00 +3°C° 0.4 mm 3 m/S 740 mmHg 88%
06:00 +4°C° 0.1 mm 3 m/S 740 mmHg 84%
07:00 +4°C° 0.1 mm 3 m/S 740 mmHg 80%
08:00 +5°C° 0.1 mm 3 m/S 741 mmHg 76%
09:00 +5°C° 0.1 mm 3 m/S 741 mmHg 71%
10:00 +7°C° 0.1 mm 3 m/S 741 mmHg 66%
11:00 +8°C° 0.1 mm 3 m/S 741 mmHg 61%
12:00 +7°C° 0.1 mm 3 m/S 741 mmHg 62%
13:00 +7°C° 0.1 mm 3 m/S 741 mmHg 62%
14:00 +7°C° 0.1 mm 3 m/S 741 mmHg 63%
15:00 +7°C° 0 mm 3 m/S 741 mmHg 62%
16:00 +7°C° 0 mm 2 m/S 741 mmHg 62%
17:00 +7°C° 0 mm 2 m/S 740 mmHg 61%
18:00 +6°C° 0 mm 2 m/S 740 mmHg 65%
19:00 +6°C° 0 mm 2 m/S 740 mmHg 68%
20:00 +5°C° 0 mm 2 m/S 740 mmHg 72%
21:00 +4°C° 0 mm 2 m/S 740 mmHg 74%
22:00 +4°C° 0 mm 2 m/S 740 mmHg 76%
23:00 +3°C° 0 mm 2 m/S 739 mmHg 77%

24 April, Samstag

Zeit Temperatur Niederschläge Wind Luftdruck Luftfeuchtigkeit
00:00 +3°C° 0 mm 2 m/S 739 mmHg 79%
01:00 +1°C° 0 mm 3 m/S 739 mmHg 81%
02:00 0°C° 0 mm 3 m/S 739 mmHg 83%
03:00 +1°C° 0 mm 2 m/S 739 mmHg 84%
04:00 +1°C° 0 mm 2 m/S 739 mmHg 85%
05:00 -1°C° 0 mm 2 m/S 739 mmHg 86%
06:00 0°C° 0 mm 3 m/S 739 mmHg 82%
07:00 +2°C° 0 mm 3 m/S 739 mmHg 77%
08:00 +3°C° 0 mm 4 m/S 739 mmHg 73%
09:00 +3°C° 0.1 mm 4 m/S 739 mmHg 71%
10:00 +2°C° 0.1 mm 5 m/S 739 mmHg 69%
11:00 +2°C° 0.1 mm 5 m/S 739 mmHg 68%
12:00 +2°C° 0.2 mm 6 m/S 739 mmHg 69%
13:00 +2°C° 0.2 mm 6 m/S 739 mmHg 71%
14:00 +3°C° 0.2 mm 6 m/S 739 mmHg 73%
15:00 +2°C° 0.2 mm 5 m/S 739 mmHg 73%
16:00 +2°C° 0.2 mm 5 m/S 739 mmHg 73%
17:00 +2°C° 0.2 mm 5 m/S 739 mmHg 73%
18:00 +3°C° 0.1 mm 4 m/S 739 mmHg 77%
19:00 +2°C° 0.1 mm 3 m/S 739 mmHg 82%
20:00 +1°C° 0.1 mm 3 m/S 739 mmHg 87%
21:00 0°C° 0 mm 3 m/S 739 mmHg 89%
22:00 +1°C° 0 mm 2 m/S 739 mmHg 90%
23:00 -1°C° 0 mm 2 m/S 739 mmHg 92%

25 April, Sonntag

Zeit Temperatur Niederschläge Wind Luftdruck Luftfeuchtigkeit
00:00 -1°C° 0 mm 2 m/S 739 mmHg 92%
01:00 -1°C° 0 mm 2 m/S 739 mmHg 92%
02:00 -1°C° 0 mm 2 m/S 739 mmHg 92%
03:00 -1°C° 0 mm 2 m/S 739 mmHg 93%
04:00 -1°C° 0 mm 2 m/S 739 mmHg 94%
05:00 -1°C° 0 mm 2 m/S 739 mmHg 95%
06:00 0°C° 0 mm 3 m/S 739 mmHg 87%
07:00 +1°C° 0 mm 3 m/S 739 mmHg 80%
08:00 +1°C° 0 mm 4 m/S 739 mmHg 73%
09:00 +3°C° 0.2 mm 4 m/S 739 mmHg 64%
10:00 +3°C° 0.2 mm 5 m/S 739 mmHg 55%
11:00 +4°C° 0.2 mm 6 m/S 739 mmHg 46%
12:00 +5°C° 0 mm 5 m/S 739 mmHg 43%
13:00 +5°C° 0 mm 5 m/S 739 mmHg 41%
14:00 +6°C° 0 mm 5 m/S 739 mmHg 39%
15:00 +6°C° 0 mm 4 m/S 739 mmHg 41%
16:00 +6°C° 0 mm 4 m/S 739 mmHg 44%
17:00 +5°C° 0 mm 4 m/S 739 mmHg 47%
18:00 +4°C° 0 mm 3 m/S 739 mmHg 55%
19:00 +4°C° 0 mm 2 m/S 739 mmHg 63%
20:00 +2°C° 0 mm 2 m/S 739 mmHg 72%
21:00 +2°C° 0.1 mm 2 m/S 740 mmHg 75%
22:00 +2°C° 0.1 mm 2 m/S 740 mmHg 78%
23:00 +2°C° 0.1 mm 2 m/S 740 mmHg 81%

26 April, Montag

Zeit Temperatur Niederschläge Wind Luftdruck Luftfeuchtigkeit
00:00 +1°C° 0 mm 2 m/S 740 mmHg 83%
01:00 -1°C° 0 mm 2 m/S 740 mmHg 85%
02:00 -1°C° 0 mm 2 m/S 740 mmHg 88%
03:00 -1°C° 0 mm 2 m/S 740 mmHg 89%
04:00 -2°C° 0 mm 2 m/S 740 mmHg 91%
05:00 -2°C° 0 mm 2 m/S 740 mmHg 93%
06:00 -1°C° 0 mm 2 m/S 740 mmHg 89%
07:00 +1°C° 0 mm 2 m/S 740 mmHg 85%
08:00 +3°C° 0 mm 2 m/S 741 mmHg 80%
09:00 +3°C° 0 mm 2 m/S 741 mmHg 77%
10:00 +4°C° 0 mm 2 m/S 741 mmHg 74%
11:00 +4°C° 0 mm 2 m/S 741 mmHg 71%
12:00 +5°C° 0 mm 2 m/S 741 mmHg 67%
13:00 +6°C° 0 mm 2 m/S 741 mmHg 63%
14:00 +5°C° 0 mm 3 m/S 741 mmHg 59%
15:00 +6°C° 0 mm 2 m/S 740 mmHg 58%
16:00 +7°C° 0 mm 2 m/S 740 mmHg 57%
17:00 +7°C° 0 mm 2 m/S 740 mmHg 55%
18:00 +5°C° 0 mm 3 m/S 740 mmHg 62%
19:00 +3°C° 0 mm 3 m/S 740 mmHg 68%
20:00 +2°C° 0 mm 3 m/S 740 mmHg 75%
21:00 +2°C° 0 mm 3 m/S 740 mmHg 76%
22:00 +1°C° 0 mm 3 m/S 740 mmHg 77%
23:00 +1°C° 0 mm 3 m/S 740 mmHg 79%
Mehr zeigen

Wir brauchen deine Erlaubnis

Meteoprog und unser Service Anbieter werden persönliche Daten aufbewahren, so wie Cookies, Geräte Bezeichnung oder ähnliche Technologien von deinem Gerät und Prozess, so wie Persönliche Daten Inhalte und Werbungen, genauso wie social Media und den Verkehr zu analysieren.

  • Aufbewahrung und/oder Zugang zu deiner Geräte Informationen.

    Cookies, Geräte Bezeichnung oder andere Informationen, können aufbewahrt oder Zugang zu deinem Gerät erhalten, für den Grund, der oben angegeben wird.

  • Personalisierte Werbung und Inhalte, Messungen, Einblick in das Publikum und Produkt Entwicklung.

    Werbungen und Inhalte können personalisiert werden, basierend auf ein Profil. Mehr Daten können besser personalisierte Werbungen und Inhalte hinzufügen. Werbung und Inhalte können gezeigt und gemessen werden. Einblicke über das Publikum, welche die Werbung gesehen haben und den Inhalt, können abgeleitet werden. So wie Daten können genutzt werden, um es zu verbessern oder die Benutzer Erfahrung zu verbessern das System und die Software.

Wenn du “Ich stimme zu” klickst, erlaubst du uns, die Cookies zu benutzen die Geräte Bezeichnung, den Web oder ähnliche Technologien zu benutzen. Deine Settings, können in deinem Gerät bei deinem Browser geändert werden.

Für den bestimmten Zweck, berechtigten Interessen beruhen darauf, mehr als auf den Inhalt. Du kannst mehr darüber in unseren Privaten und Cookie Politik lesen.